User: anonymous   Login
Location: Unspecified
(0.0000°N, 0.0000°E)
Time: 18:09:33
(UTC+00:00)
Language:

STARLINK-4556 - Orbit

View from above orbital plane
View from above orbital plane
View from above satellite
View from above satellite

Ground track
Ground track

The orbit is defined by the following mean orbital elements,

1 53578U          26145.21870396 +.00000000 +00000-0 +49754-4 0 00008
2 53578  53.2125  70.2031 0001232  57.8501 302.2610 15.08834775    07
Epoch (UTC): 25 May 2026 05:14:56
Eccentricity: 0.0001232
inclination: 53.2125°
perigee height: 539 km
apogee height: 541 km
right ascension of ascending node: 70.2031°
argument of perigee: 57.8501°
revolutions per day: 15.08834775
mean anomaly at epoch: 302.2610°

The dashed part of the orbit path shows where the satellite is in the earth's shadow,  

DLR